This is the latest recevied weather packets stored in our database for station/object KB4MOX. If no packets are shown the sender has not sent any weather packets the latest 10 day(s).
| Time | Temp. | Humidity | Pressure | Rain* | Wind** | Luminosity | Snow |
|---|---|---|---|---|---|---|---|
| 1778203595 | 20° C | 83% | 1012.9 hPa | 0 mm | - | 0 W/m² | - |
| 1778203291 | 20° C | 82% | 1012.8 hPa | 0 mm | - | 0 W/m² | - |
| 1778202990 | 20.56° C | 81% | 1012.7 hPa | 0 mm | - | 0 W/m² | - |
| 1778202687 | 20.56° C | 81% | 1012.6 hPa | 0 mm | - | 0 W/m² | - |
| 1778202383 | 20.56° C | 82% | 1012.5 hPa | 0 mm | - | 0 W/m² | - |
| 1778202082 | 20.56° C | 83% | 1012.6 hPa | 0 mm | - | 0 W/m² | - |
| 1778201778 | 20.56° C | 83% | 1012.5 hPa | 0 mm | - | 0 W/m² | - |
| 1778201474 | 20.56° C | 83% | 1012.4 hPa | 0 mm | - | 0 W/m² | - |
| 1778201170 | 21.11° C | 82% | 1012.4 hPa | 0 mm | - | 0 W/m² | - |
| 1778200867 | 21.11° C | 82% | 1012 hPa | 0 mm | - | 0 W/m² | - |
| 1778200564 | 21.11° C | 82% | 1011.9 hPa | 0 mm | - | 0 W/m² | - |
| 1778200262 | 21.67° C | 82% | 1012 hPa | 0 mm | - | 0 W/m² | - |
| 1778199958 | 21.67° C | 81% | 1011.8 hPa | 0 mm | - | 1 W/m² | - |
| 1778199655 | 21.67° C | 80% | 1011.8 hPa | 0 mm | - | 2 W/m² | - |
| 1778199350 | 22.22° C | 80% | 1011.8 hPa | 0 mm | - | 3 W/m² | - |
| 1778199047 | 22.22° C | 80% | 1011.6 hPa | 0 mm | - | 5 W/m² | - |
| 1778198743 | 22.78° C | 79% | 1011.6 hPa | 0 mm | - | 9 W/m² | - |
| 1778198441 | 22.78° C | 79% | 1011.4 hPa | 0 mm | - | 13 W/m² | - |
| 1778198137 | 22.78° C | 78% | 1011.5 hPa | 0 mm | - | 20 W/m² | - |
| 1778197835 | 23.33° C | 78% | 1011.5 hPa | 0 mm | - | 23 W/m² | - |
| 1778197531 | 23.33° C | 77% | 1011.6 hPa | 0 mm | - | 29 W/m² | - |
| 1778197227 | 23.33° C | 77% | 1011.4 hPa | 0 mm | - | 36 W/m² | - |
| 1778196924 | 23.89° C | 76% | 1011.5 hPa | 0 mm | - | 40 W/m² | - |
| 1778196623 | 23.89° C | 76% | 1011.2 hPa | 0 mm | - | 47 W/m² | - |
| 1778196319 | 23.89° C | 75% | 1011.2 hPa | 0 mm | - | 59 W/m² | - |
* Rain latest hour (hover to see other rain measurements)
** Current wind speed in m/s (hover to see current wind gust speed)